Regional Weather Roundup
Issued by NWS Cleveland, OH

Home | Current Version | Previous Version | Graphics & Text | Print | Product List | Glossary On
Versions: 1 2 3 4 5 6 7 8 9 10 11 12 13 14 15 16 17 18 19 20 21 22 23 24 25 26 27 28 29 30 31 32 33 34 35 36 37 38 39 40 41 42 43 44 45 46 47 48 49 50
000
ASUS41 KCLE 200000
RWRCLE
OHIO REGIONAL WEATHER ROUNDUP
NATIONAL WEATHER SERVICE WILMINGTON, OH
700 PM EST SUN NOV 19 2017

NOTE: "FAIR" INDICATES FEW OR NO CLOUDS BELOW 12,000 FEET WITH NO
SIGNIFICANT WEATHER AND/OR OBSTRUCTIONS TO VISIBILITY.

OHZ001>008-015>018-024>027-034-035-043-044-200100-
   NORTHWEST OHIO

CITY           SKY/WX    TMP DP  RH WIND       PRES   REMARKS
DEFIANCE       CLOUDY    32  20  61 W6        30.03R WCI  26
FINDLAY        FAIR      32  20  61 W16       30.02R WCI  21
TOLEDO EXPRESS CLOUDY    33  21  61 W18G25    30.00R WCI  22
TOLEDO EXEC    CLOUDY    34  21  59 W17       30.00R WCI  23
LIMA           CLOUDY    31  26  82 W15       30.03R WCI  20
$$

OHZ009>014-019>023-028>033-038-089-200100-
   NORTHEAST OHIO

CITY           SKY/WX    TMP DP  RH WIND       PRES   REMARKS
CLE-HOPKINS    FLURRIES  35  25  66 W17       29.96R WCI  25
CLE-LAKEFRONT  CLOUDY    37  25  61 W33G40    29.93R
CUY CO. ARPT   NOT AVBL
LORAIN-ELYRIA  CLOUDY    33  20  58 W13G21    29.97R WCI  24
ASHTABULA      SNOW      31  30  96 W17G25    29.90R VSB 1/2 WCI  19
AKRON-CANTON   CLOUDY    33  23  66 W14G23    29.94R WCI  23
WOOSTER        NOT AVBL
MANSFIELD      CLOUDY    32  22  66 W12G20    29.97R WCI  23
YOUNGSTOWN     LGT SNOW  31  28  89 W16       29.89R WCI  20
$$

OHZ042-051>053-060>062-070>072-077>081-200100-
  SOUTHWEST OHIO

CITY           SKY/WX    TMP DP  RH WIND       PRES   REMARKS
CINC-COVINGTON FAIR      32  25  75 W7        30.11R WCI  26
CINC-LUNKEN    FAIR      34  25  69 NW8       30.14R WCI  27
HAMILTON       FAIR      31  24  75 W9        30.14R WCI  23
DAYTON         NOT AVBL
WRIGHT-PAT AFB CLOUDY    31  22  67 W12       30.09R WCI  22
DAYTON GENERAL FAIR      30  21  69 W10       30.09R WCI  21
WILMINGTON     CLOUDY    30  23  75 NW14      30.08R WCI  19
$$

OHZ036-037-039>041-045>050-054>059-063>069-073>076-082>088-200100-
  CENTRAL AND SOUTHEAST OHIO

CITY           SKY/WX    TMP DP  RH WIND       PRES   REMARKS
COLUMBUS       CLOUDY    34  23  64 W14       30.05R WCI  25
OSU AIRPORT    CLOUDY    32  23  69 W16       30.05R WCI  21
BOLTON FIELD   CLOUDY    32  25  74 W10G18    30.06R WCI  24
RICKENBACK AFB NOT AVBL
NEWARK         CLOUDY    34  22  61 W14       30.02R WCI  25
MARION         CLOUDY    33  25  72 W10       30.02R WCI  25
LANCASTER      CLOUDY    33  22  63 W14G24    30.06R WCI  23
ZANESVILLE     CLOUDY    36  23  59 W15G23    30.01R
NEW PHILLY     CLOUDY    36  26  67 W10       29.98R
$$




USA.gov is the U.S. government's official web portal to all federal, state and local government web resources and services.